Regional Weather Roundup
Issued by NWS

Home | Current Version | Previous Version | Text Only | Print | Product List | Glossary On
Versions: 1 2 3 4 5 6 7 8 9 10 11 12 13 14 15 16 17 18 19 20 21 22 23 24 25 26 27 28 29 30 31 32 33 34 35 36 37 38 39 40 41 42 43 44 45 46 47 48 49 50
000
ASUS44 KOUN 151710
RWROK

WEATHER ROUNDUP FOR OKLAHOMA
NATIONAL WEATHER SERVICE NORMAN OK
1100 AM CST FRI DEC 15 2017

NOTE: "FAIR" INDICATES FEW OR NO CLOUDS BELOW 12,000 FEET WITH NO
      SIGNIFICANT WEATHER AND/OR OBSTRUCTIONS TO VISIBILITY.

OKZ001>007-009>012-014-015-017-151800-
NORTHWEST OKLAHOMA AND THE PANHANDLE

CITY           SKY/WX    TMP DP  RH WIND       PRES   REMARKS
GAGE           SUNNY     44  23  43 SW13      30.23F
GUYMON         SUNNY     42  29  59 SW15      30.16F WCI  34
ENID/WOODRING  SUNNY     43  30  61 W9        30.26
$$

OKZ016-021>023-033>039-044-045-151800-
SOUTHWEST OKLAHOMA

CITY           SKY/WX    TMP DP  RH WIND       PRES   REMARKS
LAWTON/REGL    SUNNY     48  28  46 W7        30.30F
LAWTON/FT SILL SUNNY     48  29  47 NW6       30.28F
FREDERICK      SUNNY     45  27  49 W5        30.29F
CLINTON        SUNNY     42  25  50 SW10      30.28F
HOBART         SUNNY     44  27  51 W6        30.30F
ALTUS AFB      SUNNY     43  23  45 W5        30.30F
$$

OKZ018>020-024>031-151800-
CENTRAL OKLAHOMA

CITY           SKY/WX    TMP DP  RH WIND       PRES   REMARKS
OKLAHOMA CITY  MOSUNNY   42  27  55 NW6       30.29S
OKC/WILEY POST SUNNY     42  29  59 SW5       30.29S
OKC/TINKER AFB SUNNY     42  27  54 NW7       30.28S
STILLWATER     SUNNY     43  29  57 SW6       30.27S
GUTHRIE        SUNNY     39  28  64 W8        30.28F WCI  33
$$

OKZ008-013-054>072-151800-
NORTHEAST OKLAHOMA

CITY           SKY/WX    TMP DP  RH WIND       PRES   REMARKS
TULSA          MOSUNNY   45  32  60 W7        30.27S
TULSA/JONES    SUNNY     45  31  58 W5        30.28R
PONCA CITY     SUNNY     39  29  67 SW6       30.26S WCI  35
BARTLESVILLE   SUNNY     45  28  51 CALM      30.26F
MUSKOGEE       MOSUNNY   45  34  65 N8        30.28S
$$

OKZ032-040>043-046>053-073>077-151800-
SOUTH CENTRAL/SOUTHEAST OKLAHOMA

CITY           SKY/WX    TMP DP  RH WIND       PRES   REMARKS
ARDMORE/DWNTWN SUNNY     46  27  46 N6        30.32S
MCALESTER      SUNNY     46  34  62 NW7       30.28F
$$





USA.gov is the U.S. government's official web portal to all federal, state and local government web resources and services.